AirNav   ProFlight Series 2 Aviation Headset
 
 479 users online  

KSCA Sidney Municipal Airport
Sidney, Ohio, USA

GOING TO SIDNEY?


FAA INFORMATION EFFECTIVE 16 JULY 2020

Location

FAA Identifier: SCA
Lat/Long: 40-14-28.6000N 084-08-52.3000W
40-14.476667N 084-08.871667W
40.2412778,-84.1478611
(estimated)
Elevation: 1044 ft. / 318.2 m (surveyed)
Variation: 05W (1995)
From city: 3 miles S of SIDNEY, OH
Time zone: UTC -4 (UTC -5 during Standard Time)
Zip code: 45365

Airport Operations

Airport use: Open to the public
Activation date: 12/1956
Control tower: no
ARTCC: INDIANAPOLIS CENTER
FSS: DAYTON FLIGHT SERVICE STATION
NOTAMs facility: DAY (NOTAM-D service available)
Attendance: 0800-1800
Pattern altitude: 1844 ft. MSL
Wind indicator: lighted
Segmented circle: no
Lights: ACTVT MIRL RY 10/28 & REIL RY 28 - CTAF.
Beacon: white-green (lighted land airport)
Operates sunset to sunrise.

Airport Communications

CTAF/UNICOM: 123.05
WX AWOS-3: 120.425 (937-492-3683)
COLUMBUS APPROACH: 118.425
COLUMBUS DEPARTURE: 118.425
CLASS C: 118.425
IC: 118.425
WX AWOS-3 at AXV (17 nm NW): 128.325 (419-753-2821)
WX AWOS-3 at EDJ (17 nm NE): 118.075 (937-599-4654)
WX AWOS-3 at VES (18 nm W): 125.9 (937-526-3154)
WX AWOS-3 at I74 (19 nm E): 118.325 (937-484-5863)

Nearby radio navigation aids

VOR radial/distance  VOR name  Freq  Var
RODr245/5.5ROSEWOOD VORTAC117.5005W
DQNr041/17.7DAYTON VOR/DME114.5001W

 
NDB name  Hdg/Dist  Freq  Var  ID
CLARK COUNTY327/27.834104WCCJ -.-. -.-. .---

Airport Services

Fuel available: 100LL JET-A+
Parking: hangars and tiedowns
Airframe service: MAJOR
Powerplant service: MAJOR
Bottled oxygen: NONE
Bulk oxygen: LOW

Runway Information

Runway 10/28

Dimensions: 5013 x 75 ft. / 1528 x 23 m
Surface: asphalt, in fair condition
Runway edge lights: medium intensity
RUNWAY 10  RUNWAY 28
Latitude: 40-14.562002N40-14.501402N
Longitude: 084-09.268428W084-08.193928W
Elevation: 1039.9 ft.1041.4 ft.
Traffic pattern: leftleft
Runway heading: 099 magnetic, 094 true279 magnetic, 274 true
Markings: nonprecision, in good conditionnonprecision, in good condition
Visual slope indicator: 2-light PAPI on left (3.00 degrees glide path)2-light PAPI on left (3.00 degrees glide path)
Runway end identifier lights: yesyes
Touchdown point: yes, no lightsyes, no lights
Obstructions: 57 ft. trees, 1242 ft. from runway, 370 ft. left of centerline, 18:1 slope to clear7 ft. hill, 201 ft. from runway, 100 ft. left and right of centerline
7 FT HILL 0 FT DSTC, 80 FT R/L.

Runway 5/23

Dimensions: 2981 x 50 ft. / 909 x 15 m
Surface: asphalt, in good condition
RUNWAY 5  RUNWAY 23
Latitude: 40-14.196817N40-14.573717N
Longitude: 084-09.310567W084-08.900017W
Elevation: 1034.8 ft.1040.5 ft.
Traffic pattern: leftleft
Runway heading: 045 magnetic, 040 true225 magnetic, 220 true
Markings: nonprecision, in good conditionnonprecision, in good condition
Runway end identifier lights: nono
Touchdown point: yes, no lightsyes, no lights
Obstructions: 15 ft. road, 201 ft. from runway, 134 ft. right of centerline
7 FT HILL, 50-199 FT DSTC, 65 R.
76 ft. pline, 2130 ft. from runway, 536 ft. right of centerline, 25:1 slope to clear
APCH RATIO 0:1 DUE TO SEASONAL CROPS AT PAVEMENT END.

Airport Ownership and Management from official FAA records

Ownership: Publicly-owned
Owner: CITY OF SIDNEY
201 W POPLAR ST
SIDNEY, OH 45365
Phone 937-498-2335
Manager: MIKE CHAPPIE
14833 SIDNEY-PLATTSVILLE RD
SIDNEY, OH 45365
Phone 937-492-9794

Airport Operational Statistics

Aircraft based on the field: 33
Single engine airplanes: 26
Multi engine airplanes: 2
Jet airplanes: 5
    
Aircraft operations: avg 56/day *
72% local general aviation
27% transient general aviation
1% air taxi
<1% military
* for 12-month period ending 05 October 2018

Additional Remarks

FOR CD CTC COLUMBUS APCH AT 614-338-8537.

Instrument Procedures

NOTE: All procedures below are presented as PDF files. If you need a reader for these files, you should download the free Adobe Reader.

NOT FOR NAVIGATION. Please procure official charts for flight.
FAA instrument procedures published for use from 16 July 2020 at 0901Z to 13 August 2020 at 0900Z.

 
IAPs - Instrument Approach Procedures
RNAV (GPS) RWY 10   download (268KB)
RNAV (GPS) RWY 28   download (255KB)
VOR-A   download (203KB)
NOTE: Special Take-Off Minimums/Departure Procedures apply   download (187KB)

Other nearby airports with instrument procedures:

I17 - Piqua Airport - Hartzell Field (9 nm SW)
KAXV - Neil Armstrong Airport (17 nm NW)
KEDJ - Bellefontaine Regional Airport (17 nm NE)
KVES - Darke County Airport (18 nm W)
I74 - Grimes Field Airport (19 nm E)
 
Loc | Ops | Rwys | IFR | FBO | Links
Com | Nav | Svcs | Stats | Notes
Area around KSCA (Sidney Municipal Airport)
 
Road maps at: MapQuest Bing Google
 
Aerial photo
WARNING: Photo may not be current or correct
Aerial photo of KSCA (Sidney Municipal Airport)
Taken late September 2008

Do you have a better or more recent aerial photo of Sidney Municipal Airport that you would like to share? If so, please send us your photo.

 
Sectional chart

 
Airport distance calculator
Flying to Sidney Municipal Airport? Find the distance to fly.

From to KSCA

Sunrise and sunset
Times for 13-Aug-2020
 Local
(UTC-4)
 Zulu
(UTC)
Morning civil twilight06:1910:19
Sunrise06:4810:48
Sunset20:3500:35
Evening civil twilight21:0401:04

Current date and time
Zulu (UTC)  13-Aug-2020 07:15:07
Local (UTC-4)  13-Aug-2020 03:15:07
 
METAR
KAXV 
17nm NW 
130655Z AUTO 00000KT 10SM CLR 16/15 A3009 RMK AO2
KEDJ 
17nm NE 
130655Z AUTO 00000KT 10SM CLR 16/16 A3011 RMK AO1
KVES 
18nm W 
130655Z AUTO 05004KT 7SM SCT046 SCT050 17/17 A3009 RMK AO2
KI74 
19nm E 
130655Z AUTO 02005KT 10SM SCT050 16/16 A3010 RMK AO2
KDAY 
21nm S 
130656Z 01003KT 10SM FEW047 FEW250 20/16 A3010 RMK AO2 SLP183 T02000161 $
KFFO 
26nm S 
130656Z AUTO 00000KT 10SM CLR 20/16 A3008 RMK AO2 SLP183 T01990163
KAOH 
28nm N 
130653Z AUTO 07005KT 10SM CLR 17/15 A3010 RMK AO2 SLP187 T01670150
KSGH 
30nm SE 
130656Z AUTO 06005KT 10SM CLR 18/18 A3009 RMK AO2 SLP184 T01780178 PNO $
TAF
KDAY 
21nm S 
130536Z 1306/1406 04004KT P6SM FEW045 SCT250 FM131400 04007KT P6SM SCT040 BKN250 FM140300 02005KT P6SM FEW045 OVC250
NOTAMs
Click for the latest NOTAMs
NOTAMs are issued by the DoD/FAA and will open in a separate window not controlled by AirNav.

 

 
 

FBO, Fuel Providers, and Aircraft Ground Support

  
 Business Name 
 
 Contact 
 
 Services / Description 
 
Fuel Prices
 
Comments
  
Aerotech Aviation LLC 937-492-9794
no information available

If you are affiliated with Aerotech Aviation LLC and would like to show here your services, contact info, web link, logo, and more, click here
100LL Jet A
SS $4.45 $3.85 
 Updated 29-Jul-2020
 
   1 read write
SS=Self service
Update Fuel Prices
 

Would you like to see your business listed on this page?

 If your business provides an interesting product or service to pilots, flight crews, aircraft, or users of the Sidney Municipal Airport, you should consider listing it here.  To start the listing process, click on the button below
 
Add a business
 

Other Pages about Sidney Municipal Airport

www.cityofsidney.org/...
 
Update a link
 
Copyright © AirNav, LLC. All rights reserved. Privacy Policy  Contact